This is the latest recevied weather packets stored in our database for station/object N2PPN. If no packets are shown the sender has not sent any weather packets the latest 10 day(s).
| Time | Temp. | Humidity | Pressure | Rain* | Wind** | Luminosity | Snow |
|---|---|---|---|---|---|---|---|
| 1777722951 | 10.56° C | 95% | 1015.2 hPa | 0 mm | - | 78 W/m² | - |
| 1777722646 | 10.56° C | 95% | 1015.4 hPa | 0 mm | - | 87 W/m² | - |
| 1777722342 | 10.56° C | 95% | 1015.3 hPa | 0 mm | - | 60 W/m² | - |
| 1777722039 | 10.56° C | 95% | 1015.1 hPa | 0 mm | - | 59 W/m² | - |
| 1777721737 | 10.56° C | 95% | 1015.2 hPa | 0 mm | - | 56 W/m² | - |
| 1777721436 | 10° C | 95% | 1015.1 hPa | 0 mm | - | 48 W/m² | - |
| 1777721133 | 10° C | 95% | 1014.9 hPa | 0 mm | - | 47 W/m² | - |
| 1777720830 | 10° C | 95% | 1014.8 hPa | 0 mm | - | 43 W/m² | - |
| 1777720527 | 10° C | 95% | 1015 hPa | 0 mm | - | 37 W/m² | - |
| 1777720225 | 10° C | 95% | 1014.9 hPa | 0 mm | - | 31 W/m² | - |
| 1777719922 | 10° C | 95% | 1014.7 hPa | 0 mm | - | 26 W/m² | - |
| 1777719620 | 10° C | 95% | 1014.4 hPa | 0 mm | - | 29 W/m² | - |
| 1777719317 | 10° C | 95% | 1014.4 hPa | 0 mm | - | 12 W/m² | - |
| 1777719014 | 10° C | 94% | 1014.6 hPa | 1.27 mm | - | 20 W/m² | - |
| 1777718711 | 10° C | 93% | 1014.6 hPa | 1.27 mm | - | 17 W/m² | - |
| 1777718409 | 10° C | 92% | 1014.5 hPa | 0 mm | - | 9 W/m² | - |
| 1777718106 | 10° C | 91% | 1014.9 hPa | 0 mm | - | 4 W/m² | - |
| 1777717804 | 10° C | 91% | 1014.8 hPa | 0 mm | - | 5 W/m² | - |
| 1777717500 | 10° C | 90% | 1015 hPa | 0 mm | - | 5 W/m² | - |
| 1777717197 | 10° C | 90% | 1014.7 hPa | 0 mm | - | 9 W/m² | - |
| 1777716895 | 10° C | 90% | 1014.9 hPa | 0 mm | - | 11 W/m² | - |
| 1777716594 | 10° C | 89% | 1014.8 hPa | 0 mm | - | 7 W/m² | - |
| 1777716292 | 10° C | 89% | 1015 hPa | 0 mm | - | 5 W/m² | - |
| 1777715989 | 10° C | 89% | 1015.1 hPa | 0 mm | - | 2 W/m² | - |
| 1777715686 | 10.56° C | 88% | 1014.6 hPa | 0 mm | - | 2 W/m² | - |
* Rain latest hour (hover to see other rain measurements)
** Current wind speed in m/s (hover to see current wind gust speed)